Ano;Sexo;Distrito censual;Seccion censual;Total Poboaci�n;Nacidos en Espa�a;Nacidos no estranxeiro;Total Uni�n Europea;Alema�a;Bulgaria;Francia;Italia;Polonia;Portugal;Reino Unido;Roman�a;Total Europa Non Comunitaria;Rusia;Ucrania;Total Africa;Alxeria;Marrocos;Nixeria;Senegal;Total Am�rica;Arxentina;Bolivia;Brasil;Colombia;Cuba;Chile;Ecuador;Paraguai;Per�;Rep�blica Dominicana;Uruguai;Venezuela;Total Asia;China;Pakist�n;Total Ocean�a
2018;Ambos sexos;1;1503001001;959;860;99;27;1;0;7;4;1;2;8;1;4;1;0;4;0;2;1;0;61;8;0;6;9;4;1;0;0;0;9;1;16;3;0;0;0
2018;Ambos sexos;1;1503001002;818;721;97;29;2;0;10;7;0;3;3;1;7;0;1;6;1;1;0;0;47;9;1;7;5;10;0;0;0;1;1;3;5;8;6;0;0
2018;Ambos sexos;1;1503001003;1.272;1.140;132;42;4;0;6;7;1;3;13;0;11;1;0;4;0;0;0;1;70;9;3;4;4;7;0;0;0;3;3;6;16;4;2;0;1
2018;Ambos sexos;1;1503001004;1.577;1.359;218;51;4;1;7;9;0;14;7;6;10;4;0;10;0;8;0;0;130;18;4;13;7;8;2;4;3;19;2;10;28;13;9;1;4
2018;Ambos sexos;1;1503001005;1.354;1.251;103;28;4;0;5;7;0;2;6;0;6;0;1;10;0;7;0;1;57;6;0;6;1;3;1;1;6;5;0;6;11;2;1;0;0
2018;Ambos sexos;1;1503001006;907;807;100;25;0;0;4;7;1;6;3;3;8;1;0;5;0;3;1;0;54;13;5;6;3;8;0;3;0;1;7;4;4;8;6;0;0
2018;Ambos sexos;1;1503001007;1.894;1.529;365;77;6;2;6;6;1;19;11;23;13;1;5;49;9;28;4;3;214;15;7;24;29;30;5;5;0;30;9;13;34;9;3;5;3
2018;Ambos sexos;1;1503001008;1.386;1.243;143;36;5;0;5;10;0;3;6;4;5;2;0;6;0;2;0;0;92;6;1;7;6;7;3;0;4;6;0;5;31;4;0;0;0
2018;Ambos sexos;1;1503001009;1.356;1.179;177;50;3;0;11;10;3;5;11;5;14;6;0;8;0;6;1;1;90;14;4;6;5;9;0;1;0;4;5;8;24;14;9;0;1
2018;Ambos sexos;1;1503001012;1.204;1.036;168;49;2;4;7;9;2;8;10;2;7;2;1;2;0;1;0;1;99;18;4;4;9;6;3;20;0;1;2;4;17;11;11;0;0
2018;Ambos sexos;2;1503002001;1.106;943;163;26;4;0;5;2;3;1;7;0;9;1;0;6;0;6;0;0;106;11;5;3;21;11;0;5;4;8;5;9;20;13;8;0;3
2018;Ambos sexos;2;1503002002;760;675;85;9;2;0;0;2;0;0;2;2;3;0;0;6;0;5;0;0;65;7;9;8;2;8;1;0;3;4;2;4;15;2;0;0;0
2018;Ambos sexos;2;1503002003;1.691;1.541;150;34;0;0;10;5;0;6;8;1;18;3;1;7;1;3;0;0;82;10;0;6;3;2;2;1;2;1;1;6;31;9;5;0;0
2018;Ambos sexos;2;1503002004;841;765;76;15;0;2;4;2;0;2;1;2;6;2;3;4;1;1;0;2;45;5;2;9;7;2;0;0;1;1;8;2;8;6;1;0;0
2018;Ambos sexos;2;1503002005;1.029;914;115;35;6;3;3;2;0;1;7;11;4;0;0;3;0;0;0;1;68;12;5;11;1;4;2;0;0;0;2;10;18;5;3;0;0
2018;Ambos sexos;2;1503002006;1.445;1.287;158;23;4;0;2;3;0;2;9;1;12;0;1;7;0;3;0;3;114;12;4;10;9;8;0;5;0;8;8;12;31;1;0;0;1
2018;Ambos sexos;2;1503002007;1.735;1.587;148;35;6;0;2;9;1;3;7;5;10;1;1;8;0;2;0;0;89;8;3;9;8;5;1;0;0;14;2;10;23;6;3;0;0
2018;Ambos sexos;2;1503002008;2.002;1.855;147;38;9;1;4;1;1;3;12;2;12;0;4;8;0;2;0;0;78;10;0;7;3;7;0;0;1;0;4;24;15;10;3;0;1
2018;Ambos sexos;2;1503002009;1.849;1.641;208;57;5;6;9;3;1;14;9;6;16;2;5;11;1;3;1;2;115;15;1;6;10;10;4;5;1;5;11;12;28;9;3;4;0
2018;Ambos sexos;2;1503002010;1.358;1.222;136;26;3;2;7;0;0;2;6;2;8;1;1;7;2;0;0;5;93;10;9;3;9;15;1;2;0;10;3;8;19;2;1;0;0
2018;Ambos sexos;2;1503002011;1.054;958;96;21;0;0;3;3;0;4;4;1;9;0;2;2;1;0;0;0;58;3;0;7;13;8;1;0;0;4;3;4;8;4;1;0;2
2018;Ambos sexos;2;1503002012;1.007;910;97;22;3;0;2;2;2;1;7;3;4;0;1;8;0;8;0;0;63;14;2;9;5;3;2;0;0;2;0;5;16;0;0;0;0
2018;Ambos sexos;2;1503002013;1.075;941;134;31;4;0;6;2;1;1;9;7;13;3;2;6;0;1;0;0;83;14;1;16;13;7;1;1;1;0;7;9;9;1;0;0;0
2018;Ambos sexos;2;1503002014;979;897;82;13;2;0;1;1;0;0;6;0;6;0;1;1;0;1;0;0;62;7;2;4;2;4;0;0;0;6;5;6;18;0;0;0;0
2018;Ambos sexos;2;1503002015;1.327;1.192;135;46;11;4;7;3;1;3;15;2;11;3;3;3;0;0;2;0;72;10;0;15;2;2;0;5;0;12;1;8;15;3;0;0;0
2018;Ambos sexos;2;1503002016;1.047;943;104;35;6;3;5;3;0;3;8;6;8;1;0;3;1;2;0;0;57;7;0;4;3;5;0;2;2;0;10;13;8;1;0;0;0
2018;Ambos sexos;2;1503002017;1.658;1.514;144;49;9;3;7;0;0;2;16;11;12;2;2;5;0;3;0;0;77;13;0;1;8;12;1;0;0;0;16;7;12;1;0;0;0
2018;Ambos sexos;2;1503002018;1.707;1.530;177;41;4;1;8;5;0;4;11;3;11;0;2;4;0;2;0;1;119;21;1;13;13;11;0;4;0;7;8;15;24;2;1;0;0
2018;Ambos sexos;2;1503002019;766;689;77;18;2;1;2;3;0;1;6;1;8;0;2;5;0;5;0;0;43;6;0;8;6;0;0;0;0;3;3;12;5;1;1;0;2
2018;Ambos sexos;2;1503002020;1.198;1.098;100;27;3;0;6;2;0;1;12;3;17;1;0;4;1;0;0;0;51;11;0;3;7;1;1;1;0;1;0;13;11;0;0;0;1
2018;Ambos sexos;2;1503002021;1.849;1.622;227;50;5;1;8;5;3;7;15;2;15;2;0;7;0;4;0;0;143;23;0;20;14;5;0;0;0;0;6;14;48;12;2;1;0
2018;Ambos sexos;2;1503002022;1.823;1.699;124;30;1;0;10;1;1;3;11;1;17;1;1;2;0;2;0;0;68;10;1;6;9;1;0;1;0;3;1;11;19;7;4;0;0
2018;Ambos sexos;2;1503002023;1.043;963;80;32;0;0;8;1;0;2;8;11;6;0;0;5;0;1;0;0;34;1;0;5;6;3;0;1;0;1;1;7;9;3;3;0;0
2018;Ambos sexos;3;1503003001;880;820;60;18;5;1;4;0;0;2;3;1;3;0;0;4;1;3;0;0;28;4;1;2;1;5;1;0;0;1;2;0;6;7;0;0;0
2018;Ambos sexos;3;1503003002;1.299;1.204;95;17;1;0;2;4;0;5;1;2;6;0;1;4;1;1;0;0;63;10;0;3;0;12;2;0;0;9;2;0;16;2;1;0;3
2018;Ambos sexos;3;1503003003;1.512;1.425;87;17;1;1;8;1;0;3;2;0;3;0;0;6;2;1;1;0;55;7;0;3;7;5;3;1;2;2;0;1;16;6;2;0;0
2018;Ambos sexos;3;1503003004;1.033;893;140;20;1;7;1;0;0;0;6;1;10;1;0;10;1;6;0;1;92;11;3;5;3;5;1;2;0;34;5;10;8;8;2;0;0
2018;Ambos sexos;3;1503003005;1.413;1.337;76;15;1;0;4;1;0;5;1;0;6;5;0;1;0;0;0;0;51;4;6;1;3;4;1;0;1;10;1;0;10;3;1;0;0
2018;Ambos sexos;3;1503003006;1.156;1.073;83;23;9;0;1;4;0;1;5;2;7;5;0;4;0;2;0;0;42;7;3;3;4;2;0;0;0;1;0;2;11;7;3;0;0
2018;Ambos sexos;3;1503003007;1.420;1.338;82;26;1;1;8;3;0;1;6;4;7;1;2;2;0;2;0;0;45;9;5;4;3;7;1;0;0;1;0;0;9;2;0;0;0
2018;Ambos sexos;3;1503003009;1.246;1.166;80;12;2;0;3;1;0;2;3;1;2;0;0;4;1;0;0;1;56;7;1;3;11;5;1;1;1;1;1;1;17;6;5;0;0
2018;Ambos sexos;3;1503003010;1.187;1.066;121;19;4;0;2;3;0;2;6;0;2;0;0;4;0;3;0;0;94;12;13;11;10;3;0;6;1;7;4;11;11;2;0;0;0
2018;Ambos sexos;3;1503003011;1.025;940;85;28;1;0;2;4;0;2;5;11;5;1;1;1;0;0;0;0;49;7;3;5;1;2;0;0;1;15;0;1;6;2;1;0;0
2018;Ambos sexos;3;1503003012;936;783;153;24;3;1;5;0;0;1;1;13;5;0;0;6;0;5;0;0;113;7;34;13;6;2;1;4;0;18;7;6;4;5;1;0;0
2018;Ambos sexos;3;1503003013;1.429;1.240;189;35;3;0;6;3;1;8;6;6;12;1;1;5;1;3;0;0;132;10;2;22;11;6;1;3;1;10;10;6;26;5;4;0;0
2018;Ambos sexos;3;1503003014;1.101;1.011;90;14;1;0;5;0;0;1;0;5;4;0;0;2;0;2;0;0;66;5;5;10;3;15;1;0;1;2;9;5;7;4;2;0;0
2018;Ambos sexos;3;1503003015;1.091;1.021;70;11;0;0;3;4;1;0;2;1;5;1;4;2;0;2;0;0;46;12;0;5;1;4;0;0;0;4;1;2;6;6;6;0;0
2018;Ambos sexos;3;1503003016;1.827;1.722;105;14;1;0;2;2;0;2;5;0;8;3;0;3;1;1;0;0;73;9;0;6;11;12;4;0;0;1;8;2;18;7;5;0;0
2018;Ambos sexos;3;1503003017;1.358;1.244;114;25;5;0;5;2;4;1;5;3;7;0;1;2;0;1;0;0;78;9;0;10;12;4;0;0;1;5;6;6;17;2;0;0;0
2018;Ambos sexos;3;1503003018;1.441;1.332;109;10;1;0;3;0;0;0;5;0;5;0;0;3;0;2;0;0;79;7;1;13;4;8;2;4;0;0;7;9;22;12;6;0;0
2018;Ambos sexos;3;1503003020;1.531;1.359;172;14;3;0;7;1;0;0;2;0;6;1;0;16;2;12;0;0;131;4;0;19;12;10;0;2;4;34;4;3;32;5;1;0;0
2018;Ambos sexos;3;1503003021;842;770;72;10;2;0;1;1;1;0;4;0;6;0;0;5;0;4;0;0;50;6;3;1;6;7;0;0;0;9;0;1;9;1;1;0;0
2018;Ambos sexos;3;1503003022;978;879;99;12;2;0;0;3;1;1;2;2;5;1;0;3;0;2;0;1;75;2;1;10;7;14;1;0;2;6;3;3;25;4;0;0;0
2018;Ambos sexos;3;1503003023;699;655;44;14;1;0;6;0;0;2;1;0;8;0;2;1;0;1;0;0;20;3;0;1;5;2;0;0;0;1;0;1;7;1;0;0;0
2018;Ambos sexos;4;1503004001;952;799;153;34;2;0;4;4;0;4;4;14;7;0;3;2;1;1;0;0;110;13;6;3;8;5;2;0;3;13;10;13;23;0;0;0;0
2018;Ambos sexos;4;1503004002;1.207;1.087;120;14;0;0;3;1;0;2;7;1;5;0;0;14;0;1;0;7;82;15;1;3;5;5;1;3;8;5;3;1;24;5;1;3;0
2018;Ambos sexos;4;1503004003;1.109;848;261;31;3;3;6;0;0;6;1;11;9;2;2;37;1;10;15;6;176;16;2;15;19;62;2;1;1;9;13;13;22;7;7;0;1
2018;Ambos sexos;4;1503004004;1.155;923;232;15;4;0;2;0;0;4;2;3;5;0;0;40;0;14;3;21;161;14;20;22;11;8;0;3;0;39;19;12;8;11;9;0;0
2018;Ambos sexos;4;1503004005;1.233;1.004;229;44;5;1;4;0;0;8;10;15;5;0;0;15;2;3;0;10;150;8;1;12;17;9;1;7;7;13;13;13;41;15;8;3;0
2018;Ambos sexos;4;1503004006;1.159;957;202;63;2;0;6;4;0;1;6;40;16;5;5;14;1;5;0;7;108;6;20;7;17;8;1;7;1;9;7;1;19;1;0;0;0
2018;Ambos sexos;4;1503004007;1.866;1.661;205;25;3;0;8;3;1;2;5;2;8;1;0;16;4;8;0;1;136;13;2;8;25;17;0;0;1;18;2;10;32;20;10;9;0
2018;Ambos sexos;4;1503004008;1.181;1.013;168;17;0;0;2;2;0;2;4;6;10;1;0;22;0;14;2;5;116;8;7;9;6;13;4;3;0;11;6;18;28;3;0;0;0
2018;Ambos sexos;4;1503004009;1.126;933;193;17;2;4;3;2;0;1;2;3;11;0;0;27;3;2;3;8;126;19;5;15;16;6;5;2;0;9;16;6;20;12;5;1;0
2018;Ambos sexos;4;1503004010;1.596;1.351;245;32;1;0;4;3;0;5;12;6;9;1;1;14;0;5;1;3;173;13;10;13;27;23;0;8;0;21;11;14;25;17;5;10;0
2018;Ambos sexos;4;1503004011;1.150;953;197;19;0;0;5;1;0;4;5;4;7;0;0;22;1;6;1;7;135;5;3;35;13;3;0;10;8;10;13;9;22;14;13;0;0
2018;Ambos sexos;4;1503004012;1.173;1.003;170;24;4;0;5;0;0;0;11;3;7;0;0;22;1;11;5;1;117;12;4;14;7;16;1;3;3;10;16;9;19;0;0;0;0
2018;Ambos sexos;4;1503004013;1.566;1.338;228;23;4;0;2;2;0;4;4;4;12;1;2;30;0;13;2;10;150;13;1;17;22;13;3;0;2;12;19;7;36;13;4;7;0
2018;Ambos sexos;4;1503004014;812;734;78;9;0;0;4;0;0;0;5;0;6;2;0;2;0;1;0;0;55;4;0;13;4;4;0;4;0;1;7;4;10;6;0;1;0
2018;Ambos sexos;4;1503004015;1.542;1.345;197;15;4;0;3;0;0;5;3;0;17;2;4;24;0;8;4;4;129;14;7;10;17;15;2;6;8;12;15;5;14;12;8;3;0
2018;Ambos sexos;4;1503004018;1.038;814;224;20;2;0;5;0;0;6;4;2;10;0;1;23;0;11;0;3;151;6;11;18;12;27;1;7;2;17;18;7;19;20;5;7;0
2018;Ambos sexos;4;1503004019;880;662;218;24;2;0;2;1;1;2;5;10;11;1;2;8;0;3;0;2;170;5;9;18;17;53;0;3;8;18;13;8;12;5;4;1;0
2018;Ambos sexos;4;1503004020;1.259;1.040;219;25;5;0;1;0;0;4;6;9;14;1;0;7;0;1;0;2;160;7;6;13;12;38;0;1;1;21;27;11;22;12;9;0;1
2018;Ambos sexos;4;1503004021;731;561;170;8;1;0;2;0;0;1;1;2;8;0;0;44;4;7;1;29;109;6;2;6;23;25;0;5;4;9;2;4;22;1;0;0;0
2018;Ambos sexos;4;1503004022;1.082;855;227;23;4;0;2;2;0;3;8;3;12;0;2;17;3;4;2;6;168;14;4;4;28;26;1;10;6;25;9;10;23;7;6;0;0
2018;Ambos sexos;4;1503004023;1.823;1.544;279;31;5;0;4;0;0;1;11;7;18;2;1;27;0;11;5;6;195;9;2;28;34;11;1;11;1;27;19;16;29;8;3;5;0
2018;Ambos sexos;4;1503004024;813;707;106;18;3;0;1;0;0;2;5;1;5;0;0;0;0;0;0;0;76;2;0;7;8;15;1;0;1;8;14;7;10;7;0;0;0
2018;Ambos sexos;4;1503004025;1.044;819;225;11;0;0;1;1;0;3;2;4;7;1;0;14;2;7;2;0;180;8;1;8;17;27;2;20;2;34;17;8;31;13;4;9;0
2018;Ambos sexos;4;1503004026;913;728;185;18;1;2;3;0;0;2;6;2;11;2;1;18;2;4;1;10;132;7;8;26;13;9;0;1;0;19;11;7;29;6;5;0;0
2018;Ambos sexos;4;1503004028;1.263;1.069;194;18;1;0;1;0;2;4;3;3;6;0;0;53;23;13;1;9;112;9;23;6;7;17;1;7;0;9;6;12;12;5;2;2;0
2018;Ambos sexos;4;1503004029;986;860;126;8;0;0;3;0;0;0;4;1;6;0;0;7;0;1;0;0;96;3;0;13;14;8;0;5;1;23;7;8;11;9;0;9;0
2018;Ambos sexos;5;1503005001;1.612;1.502;110;29;0;0;7;4;0;4;8;1;7;2;0;3;0;1;0;0;60;8;0;4;3;5;2;0;0;2;1;6;26;11;6;0;0
2018;Ambos sexos;5;1503005002;1.065;996;69;22;3;0;10;2;1;4;0;0;5;0;1;0;0;0;0;0;26;3;0;3;2;1;1;0;0;0;0;3;5;16;2;12;0
2018;Ambos sexos;5;1503005003;1.498;1.373;125;13;3;0;2;2;0;1;3;1;7;2;1;2;0;1;0;0;78;16;0;9;4;7;1;1;0;19;3;0;13;24;20;0;1
2018;Ambos sexos;5;1503005004;1.809;1.696;113;29;4;1;6;4;0;4;7;0;13;2;0;3;0;2;0;0;62;4;0;1;5;10;5;0;2;5;2;3;18;6;5;0;0
2018;Ambos sexos;5;1503005005;1.296;1.130;166;25;2;1;2;0;0;11;5;2;10;2;2;20;0;2;1;13;103;3;0;11;10;7;0;1;0;5;22;5;33;8;0;4;0
2018;Ambos sexos;5;1503005006;1.486;1.341;145;26;6;1;5;0;0;1;8;3;24;3;0;10;1;1;0;1;83;17;8;5;8;4;4;0;0;0;5;11;14;2;1;0;0
2018;Ambos sexos;5;1503005007;1.768;1.593;175;23;3;0;2;2;0;5;5;1;10;0;0;4;0;3;0;1;134;22;3;4;22;7;0;1;3;7;5;10;41;4;0;0;0
2018;Ambos sexos;5;1503005008;2.042;1.696;346;68;3;7;4;1;4;24;10;11;12;2;2;72;15;32;2;15;189;19;4;19;31;27;1;7;3;19;10;11;27;5;2;0;0
2018;Ambos sexos;5;1503005009;1.340;1.138;202;36;7;0;7;0;0;4;5;9;20;5;0;7;0;3;0;0;135;15;0;16;29;6;4;0;1;7;10;2;39;4;0;0;0
2018;Ambos sexos;5;1503005010;800;696;104;23;1;0;3;2;0;3;2;10;11;2;0;8;3;2;0;2;59;3;0;7;8;8;0;2;0;0;5;6;10;3;1;1;0
2018;Ambos sexos;5;1503005011;1.450;1.356;94;36;8;4;3;2;0;2;5;2;6;0;1;2;1;0;0;0;50;10;0;10;3;7;2;0;0;2;1;4;11;0;0;0;0
2018;Ambos sexos;5;1503005012;1.756;1.581;175;45;10;3;11;2;0;1;14;0;12;0;0;3;0;1;0;1;114;27;0;17;13;4;0;0;1;1;2;20;27;1;0;0;0
2018;Ambos sexos;5;1503005013;1.069;997;72;7;1;0;1;3;0;1;1;0;8;0;0;2;0;1;0;0;50;9;1;5;0;8;4;0;0;1;1;4;10;5;0;0;0
2018;Ambos sexos;5;1503005014;2.093;1.878;215;45;4;0;3;10;1;3;13;9;16;2;0;5;1;1;0;1;144;13;4;25;10;12;0;1;0;5;7;9;46;5;1;0;0
2018;Ambos sexos;5;1503005015;1.360;1.188;172;29;8;1;5;1;0;2;8;1;18;2;0;10;0;2;1;3;101;16;0;17;14;7;0;0;1;1;8;6;30;14;1;1;0
2018;Ambos sexos;5;1503005016;1.255;1.110;145;28;5;0;1;1;0;2;12;5;8;1;0;13;0;4;0;6;84;15;1;9;8;7;2;0;0;2;9;15;11;12;6;0;0
2018;Ambos sexos;5;1503005017;1.748;1.576;172;34;6;0;3;1;0;1;14;4;33;3;1;7;2;0;0;2;94;20;2;15;4;1;0;1;0;3;3;7;30;3;2;0;1
2018;Ambos sexos;5;1503005018;2.183;2.015;168;45;12;1;7;2;1;4;15;1;19;0;0;1;0;0;0;0;98;17;0;8;12;4;0;0;0;3;2;14;32;5;5;0;0
2018;Ambos sexos;5;1503005019;1.409;1.249;160;24;6;0;3;2;0;1;8;3;33;1;0;3;0;0;0;1;94;11;0;8;6;2;1;0;1;0;0;9;50;6;4;0;0
2018;Ambos sexos;5;1503005020;1.138;1.030;108;20;5;1;2;1;0;2;5;0;30;2;0;1;0;1;0;0;52;3;1;9;15;4;0;0;0;0;2;8;9;5;5;0;0
2018;Ambos sexos;5;1503005021;1.567;1.410;157;47;13;0;14;1;1;2;4;12;20;4;0;2;0;2;0;0;84;5;0;10;8;2;0;0;0;1;2;14;41;4;2;0;0
2018;Ambos sexos;5;1503005022;2.177;1.984;193;56;8;3;9;0;0;5;18;1;29;1;0;4;0;1;0;0;101;20;0;15;7;9;4;0;1;0;2;12;25;2;2;0;1
2018;Ambos sexos;6;1503006001;1.499;1.282;217;31;6;0;6;2;1;1;4;9;19;2;2;30;0;5;4;21;123;23;0;13;10;18;0;4;1;13;11;5;19;13;12;0;1
2018;Ambos sexos;6;1503006002;1.594;1.232;362;31;3;0;7;4;0;5;5;7;20;0;3;91;8;19;1;55;213;13;3;8;31;31;3;0;0;28;36;19;37;7;2;3;0
2018;Ambos sexos;6;1503006003;1.077;815;262;42;3;1;5;1;1;3;5;22;10;0;1;68;0;5;2;55;138;26;7;4;14;7;4;8;4;13;17;8;15;4;4;0;0
2018;Ambos sexos;6;1503006004;825;644;181;16;0;0;4;2;0;2;2;5;9;1;0;50;9;4;0;37;103;8;4;12;12;4;1;5;5;16;8;8;17;3;2;0;0
2018;Ambos sexos;6;1503006005;1.063;900;163;11;0;1;3;2;0;2;1;1;11;0;0;10;1;4;0;3;125;15;4;11;17;12;0;9;0;18;2;8;26;6;3;2;0
2018;Ambos sexos;6;1503006006;781;649;132;12;1;3;3;0;0;0;4;1;7;2;0;17;0;0;0;15;88;14;0;12;8;10;0;3;2;13;0;10;14;7;6;0;1
2018;Ambos sexos;6;1503006007;977;797;180;17;4;0;5;1;0;2;4;1;6;0;0;30;0;0;3;18;122;17;17;4;12;9;0;0;2;12;22;5;19;5;1;1;0
2018;Ambos sexos;6;1503006008;960;763;197;35;1;0;8;0;0;4;6;15;7;0;0;21;1;3;1;13;131;6;4;8;18;21;3;1;1;13;18;10;26;1;1;0;2
2018;Ambos sexos;6;1503006009;1.474;1.138;336;51;9;0;9;2;0;1;7;23;12;1;0;31;0;1;0;25;234;15;11;20;23;16;1;6;3;25;21;33;56;8;1;6;0
2018;Ambos sexos;6;1503006010;1.128;963;165;14;3;0;3;1;0;2;2;2;9;0;3;23;0;8;2;12;118;6;2;8;20;8;1;4;3;17;11;12;21;1;0;0;0
2018;Ambos sexos;6;1503006011;755;578;177;20;0;0;0;0;2;4;10;4;9;2;0;41;2;2;3;29;102;4;1;3;10;5;0;1;1;23;4;11;28;5;0;3;0
2018;Ambos sexos;6;1503006012;1.618;1.346;272;51;11;1;6;2;2;5;6;18;10;0;0;33;1;4;4;12;172;10;0;10;22;38;0;4;3;13;36;7;25;6;1;0;0
2018;Ambos sexos;6;1503006013;1.074;870;204;26;3;0;6;0;0;5;6;3;14;1;0;33;0;7;0;19;130;22;3;8;17;12;0;8;2;16;6;16;20;1;1;0;0
2018;Ambos sexos;6;1503006014;1.326;1.069;257;27;2;0;9;0;0;3;4;7;5;0;0;47;0;2;11;24;172;17;7;19;35;12;2;2;1;16;26;15;18;5;5;0;1
2018;Ambos sexos;6;1503006015;1.306;1.087;219;24;3;0;3;0;0;6;6;4;20;5;4;15;0;1;0;11;156;17;5;12;10;19;0;3;0;10;32;13;30;4;0;2;0
2018;Ambos sexos;6;1503006016;1.407;1.141;266;32;5;0;5;2;0;2;14;1;15;0;4;42;0;5;4;27;166;18;1;24;16;13;1;4;0;8;31;8;36;11;0;8;0
2018;Ambos sexos;6;1503006017;1.401;1.101;300;24;7;0;6;0;0;3;3;5;13;1;0;37;4;12;0;14;218;26;6;12;14;27;2;5;10;38;40;16;15;8;5;1;0
2018;Ambos sexos;6;1503006018;1.101;920;181;19;4;0;6;2;0;1;4;2;8;1;0;4;1;2;0;1;144;18;0;14;23;18;1;2;3;22;19;15;6;6;0;6;0
2018;Ambos sexos;6;1503006019;1.057;862;195;16;3;0;0;1;0;8;1;3;11;0;0;33;3;3;2;19;118;16;6;13;7;7;0;2;2;8;39;6;10;17;11;1;0
2018;Ambos sexos;6;1503006020;813;637;176;23;5;0;4;3;0;3;7;0;7;0;1;12;4;4;3;0;123;5;6;16;19;4;1;6;3;6;27;13;15;11;10;1;0
2018;Ambos sexos;6;1503006021;946;711;235;29;4;3;5;1;0;3;1;7;9;0;0;36;0;3;5;23;159;21;3;7;14;17;2;1;1;15;24;19;27;2;1;0;0
2018;Ambos sexos;6;1503006022;719;572;147;12;1;0;3;1;0;1;3;1;7;0;0;24;3;3;0;17;96;13;3;5;15;12;0;0;0;7;13;19;9;7;1;0;1
2018;Ambos sexos;6;1503006023;1.249;1.034;215;27;3;2;2;0;0;6;11;0;16;2;0;23;1;5;1;9;143;29;0;4;31;4;1;5;0;24;5;17;18;6;6;0;0
2018;Ambos sexos;7;1503007001;1.385;1.135;250;22;3;0;3;0;0;3;2;11;9;2;0;32;0;0;0;31;183;3;5;17;20;22;3;12;2;28;26;1;29;4;1;0;0
2018;Ambos sexos;7;1503007002;1.639;1.465;174;38;5;0;3;2;0;7;15;3;12;0;0;6;1;0;1;1;114;14;2;12;9;9;2;0;2;2;22;12;26;4;3;0;0
2018;Ambos sexos;7;1503007003;800;713;87;15;0;0;3;0;0;1;7;2;2;0;0;11;1;0;1;9;59;4;0;9;4;12;0;1;1;8;5;3;12;0;0;0;0
2018;Ambos sexos;7;1503007004;1.507;1.356;151;22;9;1;2;0;0;1;7;2;17;3;0;4;0;3;1;0;107;11;1;6;20;11;2;0;0;0;14;12;27;1;0;0;0
2018;Ambos sexos;7;1503007005;1.042;942;100;17;6;0;2;0;0;2;4;1;8;0;0;5;1;0;3;0;68;6;2;7;10;6;2;1;0;4;15;7;8;2;2;0;0
2018;Ambos sexos;7;1503007006;1.843;1.639;204;49;5;3;6;1;0;10;11;6;12;0;1;7;0;6;0;0;128;13;2;7;38;3;0;1;2;12;17;10;20;8;0;0;0
2018;Ambos sexos;7;1503007007;1.527;1.350;177;41;7;2;9;1;1;4;14;2;8;0;2;8;0;0;3;4;117;16;1;13;13;13;0;5;0;9;11;14;16;2;2;0;1
2018;Ambos sexos;7;1503007008;1.639;1.422;217;30;4;0;8;2;0;2;10;0;12;0;3;12;0;6;0;0;160;20;3;6;24;11;0;0;1;9;9;16;56;3;2;0;0
2018;Ambos sexos;7;1503007009;1.692;1.518;174;30;7;0;9;2;1;2;5;1;11;4;0;22;4;5;1;4;107;15;0;15;3;12;0;0;5;10;3;11;28;4;3;0;0
2018;Ambos sexos;7;1503007010;1.195;1.060;135;17;5;0;6;2;0;0;4;0;18;3;2;3;0;2;1;0;96;6;0;11;7;11;0;1;6;14;8;3;24;1;0;0;0
2018;Ambos sexos;7;1503007011;1.474;1.250;224;22;2;4;7;0;0;1;5;0;9;1;0;13;1;3;0;5;172;19;4;13;15;10;3;12;0;36;6;6;37;8;0;4;0
2018;Ambos sexos;7;1503007012;1.562;1.377;185;26;0;0;3;3;0;4;8;8;8;0;0;12;1;5;0;1;122;7;4;4;14;13;7;0;0;17;19;7;16;16;14;0;1
2018;Ambos sexos;7;1503007013;1.933;1.685;248;21;1;1;5;1;0;6;3;0;10;1;0;10;0;2;2;2;198;20;0;10;28;21;0;2;0;26;12;16;53;9;3;0;0
2018;Ambos sexos;7;1503007014;1.648;1.495;153;31;10;0;5;2;1;1;7;4;8;1;0;12;0;4;0;2;98;12;0;12;11;5;0;0;0;6;13;10;24;4;2;0;0
2018;Ambos sexos;7;1503007015;1.702;1.580;122;21;7;0;10;0;1;0;2;0;13;0;2;2;0;1;0;0;84;14;0;0;15;17;2;0;1;1;3;13;15;2;0;0;0
2018;Ambos sexos;7;1503007016;1.114;1.043;71;10;1;0;3;0;0;3;2;0;5;2;0;4;0;1;0;0;52;5;0;5;10;5;0;2;0;5;12;2;6;0;0;0;0
2018;Ambos sexos;7;1503007017;738;695;43;8;0;0;1;1;0;1;2;1;1;0;0;5;0;1;0;0;22;2;0;0;4;6;0;1;3;0;1;0;4;7;6;0;0
2018;Ambos sexos;7;1503007018;1.193;1.154;39;11;2;0;2;0;0;1;5;0;4;0;0;2;0;1;0;0;20;2;1;3;1;0;0;1;0;5;1;2;4;2;0;2;0
2018;Ambos sexos;7;1503007019;1.052;989;63;11;1;0;3;1;0;0;4;2;9;2;0;2;0;2;0;0;39;3;0;2;9;6;1;3;1;2;0;2;6;2;1;0;0
2018;Ambos sexos;7;1503007020;1.520;1.421;99;13;1;0;6;1;0;0;2;2;8;0;0;7;0;2;0;0;61;14;0;8;4;5;0;0;0;3;5;4;15;9;8;0;1
2018;Ambos sexos;7;1503007021;1.460;1.289;171;29;8;3;4;0;0;1;10;1;17;0;3;13;0;4;0;6;107;9;1;9;9;15;3;0;0;7;13;16;22;5;1;0;0
2018;Ambos sexos;7;1503007022;1.318;1.202;116;24;3;0;7;1;0;2;8;2;17;1;0;3;0;0;0;1;66;6;9;9;2;3;2;4;1;1;3;9;13;6;6;0;0
2018;Ambos sexos;7;1503007023;1.294;1.175;119;17;4;0;5;0;0;1;4;1;10;4;2;8;0;0;1;3;76;1;0;5;5;8;1;4;2;24;12;1;13;8;0;0;0
2018;Ambos sexos;7;1503007025;717;689;28;7;1;0;1;0;0;0;3;1;0;0;0;3;0;1;0;1;17;5;0;1;2;1;0;0;0;1;1;1;4;1;1;0;0
2018;Ambos sexos;7;1503007026;793;741;52;7;1;0;2;0;1;0;2;1;6;0;3;3;0;2;0;0;34;4;1;4;0;3;2;3;0;1;0;1;15;2;0;0;0
2018;Ambos sexos;7;1503007027;1.114;1.061;53;13;1;0;2;1;0;1;6;1;4;0;0;6;1;0;0;2;30;2;0;4;0;4;0;0;0;0;0;11;4;0;0;0;0
2018;Ambos sexos;7;1503007028;1.347;1.291;56;5;0;0;0;0;0;1;3;0;9;0;0;2;0;0;0;1;40;5;0;7;5;1;1;2;0;0;0;8;9;0;0;0;0
2018;Ambos sexos;7;1503007029;1.006;937;69;11;0;0;2;1;0;2;3;3;5;2;0;2;0;1;0;0;45;7;0;3;8;2;0;0;4;6;2;4;8;6;6;0;0
2018;Ambos sexos;7;1503007030;1.401;1.311;90;22;3;3;4;1;0;0;9;2;9;2;0;3;0;2;0;0;55;4;0;3;7;8;3;1;1;0;7;7;14;1;0;0;0
2018;Ambos sexos;7;1503007031;1.415;1.284;131;29;3;1;5;2;0;3;7;7;16;2;0;6;0;5;0;1;78;10;3;15;6;8;2;0;1;1;7;5;17;1;0;0;1
2018;Ambos sexos;7;1503007033;966;922;44;5;1;1;2;0;0;0;1;0;8;0;0;3;0;2;0;0;27;5;0;1;1;5;0;0;0;0;0;7;8;1;1;0;0
2018;Ambos sexos;7;1503007034;881;834;47;12;1;0;5;0;0;2;2;2;1;0;0;2;0;1;0;0;29;3;0;1;4;7;0;0;0;0;0;7;5;3;3;0;0
2018;Ambos sexos;7;1503007035;1.520;1.367;153;16;1;0;3;1;0;2;3;5;20;0;1;10;0;1;1;0;99;8;0;2;14;8;0;0;5;6;2;7;43;8;3;0;0
2018;Ambos sexos;7;1503007036;2.508;2.269;239;41;3;0;9;1;0;6;12;4;32;1;1;8;1;4;0;2;151;23;1;16;16;12;3;5;1;1;12;8;36;7;5;1;0
2018;Ambos sexos;7;1503007038;1.288;1.158;130;24;5;0;2;0;0;2;9;4;23;2;1;1;0;1;0;0;82;7;1;3;14;12;0;4;1;13;13;2;7;0;0;0;0
2018;Ambos sexos;7;1503007039;1.224;1.090;134;19;1;0;4;1;0;0;11;1;17;0;0;9;0;3;3;0;86;5;0;1;19;14;0;2;0;8;5;8;21;3;3;0;0
2018;Ambos sexos;7;1503007040;1.145;1.030;115;23;4;0;9;0;0;3;4;0;7;0;0;6;0;2;2;0;78;12;0;9;10;10;0;0;0;10;9;4;12;1;1;0;0
2018;Ambos sexos;7;1503007041;1.015;931;84;13;5;0;1;1;1;1;2;2;13;2;0;5;0;2;0;0;51;9;0;7;10;5;1;2;0;3;2;5;6;2;2;0;0
2018;Ambos sexos;7;1503007042;2.080;1.906;174;30;7;0;6;2;1;5;7;0;21;0;1;8;0;7;0;0;107;9;0;6;11;5;2;2;0;4;6;6;50;8;7;0;0
2018;Ambos sexos;7;1503007043;1.402;1.269;133;28;6;0;7;4;0;0;7;2;21;3;0;6;1;1;0;0;75;9;0;8;4;10;0;1;0;1;2;7;25;3;2;0;0
2018;Ambos sexos;8;1503008001;1.251;1.124;127;32;6;0;4;2;0;2;14;1;12;0;0;14;0;0;1;10;65;8;0;4;4;3;0;2;4;11;5;4;16;4;2;2;0
2018;Ambos sexos;8;1503008002;1.981;1.774;207;37;11;0;9;0;2;2;9;2;22;0;3;8;1;1;0;1;139;9;7;8;25;13;0;9;2;5;9;20;30;1;1;0;0
2018;Ambos sexos;8;1503008003;1.586;1.400;186;40;8;0;5;0;0;10;7;1;5;0;0;17;1;7;0;2;121;21;3;6;8;7;1;4;0;3;2;12;44;3;1;0;0
2018;Ambos sexos;8;1503008004;1.484;1.324;160;36;2;0;12;1;1;5;9;0;13;1;0;2;0;1;0;0;105;24;1;5;22;11;3;0;2;6;5;4;17;4;2;0;0
2018;Ambos sexos;8;1503008005;2.069;1.860;209;36;7;0;11;1;0;6;9;1;20;2;0;16;0;2;0;13;133;8;0;20;24;9;0;8;1;3;16;12;25;4;0;0;0
2018;Ambos sexos;8;1503008006;1.217;1.045;172;28;7;0;5;0;0;3;7;3;15;4;0;8;0;4;0;2;119;17;0;19;13;10;0;0;3;6;5;13;30;2;2;0;0
2018;Ambos sexos;8;1503008007;951;838;113;60;5;1;5;0;0;38;5;5;9;0;2;3;0;1;0;0;41;9;0;5;2;2;0;1;0;0;2;12;4;0;0;0;0
2018;Ambos sexos;9;1503009001;2.799;2.510;289;70;13;2;15;2;1;12;17;1;49;12;2;11;0;6;0;2;148;16;2;11;11;9;1;0;1;8;4;11;59;10;9;0;1
2018;Ambos sexos;9;1503009002;1.823;1.662;161;38;6;0;11;1;0;2;9;4;19;1;4;1;0;0;0;0;96;8;1;11;5;10;1;1;0;4;3;20;27;7;5;0;0
2018;Ambos sexos;9;1503009003;2.521;2.276;245;50;15;0;11;0;0;6;11;2;48;2;0;2;0;1;0;1;135;31;0;10;7;5;1;7;2;9;1;4;51;10;9;0;0
2018;Ambos sexos;9;1503009004;2.556;2.222;334;41;14;0;6;1;1;8;8;1;30;0;0;14;0;3;0;2;242;47;1;23;16;13;2;6;1;14;7;19;89;7;0;1;0
2018;Ambos sexos;9;1503009005;1.530;1.379;151;21;5;0;0;1;0;1;8;1;18;2;0;2;0;1;0;0;110;19;1;8;8;11;0;4;0;3;0;12;40;0;0;0;0
2018;Ambos sexos;9;1503009006;832;736;96;19;3;0;2;1;0;2;9;1;17;2;0;4;0;1;0;0;54;10;0;5;3;2;0;2;0;2;0;4;25;1;0;0;1
2018;Ambos sexos;10;1503010001;872;802;70;14;1;0;1;0;0;5;4;3;10;1;1;4;0;3;0;1;42;6;0;6;3;10;0;1;0;4;0;3;7;0;0;0;0
2018;Ambos sexos;10;1503010002;1.698;1.505;193;24;5;0;5;1;0;0;5;7;17;0;0;12;1;3;0;8;139;4;0;16;19;6;1;2;4;0;28;16;32;1;0;0;0
2018;Ambos sexos;10;1503010003;1.520;1.388;132;22;4;0;5;1;0;2;4;2;13;0;0;6;0;0;0;5;90;17;0;8;6;6;1;0;0;3;1;20;25;1;0;0;0
2018;Ambos sexos;10;1503010004;1.381;1.238;143;16;6;0;6;0;0;0;4;0;18;1;0;3;0;0;0;1;102;11;5;2;10;9;0;0;2;2;10;19;27;3;1;0;1
2018;Ambos sexos;10;1503010005;2.264;2.036;228;56;11;1;6;6;4;5;18;3;18;0;1;3;0;0;0;0;134;24;0;23;11;7;0;1;0;5;7;11;39;16;14;0;1
2018;Ambos sexos;10;1503010006;1.206;1.088;118;27;5;0;8;0;0;4;9;0;26;3;1;2;0;0;0;1;59;7;0;7;2;2;2;0;0;0;12;10;15;4;2;0;0
2018;Mulleres;1;1503001001;521;457;64;18;0;0;5;2;1;2;5;1;2;1;0;3;0;1;1;0;39;4;0;4;6;3;1;0;0;0;9;0;8;2;0;0;0
2018;Mulleres;1;1503001002;449;395;54;15;0;0;5;4;0;1;3;0;5;0;1;4;1;1;0;0;25;4;0;5;2;4;0;0;0;1;1;1;3;5;4;0;0
2018;Mulleres;1;1503001003;681;608;73;23;2;0;3;5;1;1;8;0;6;1;0;1;0;0;0;0;40;3;2;4;2;1;0;0;0;2;1;4;9;2;1;0;1
2018;Mulleres;1;1503001004;875;753;122;27;4;0;3;3;0;7;3;5;5;2;0;4;0;3;0;0;80;10;4;8;5;4;2;2;1;11;2;8;17;4;3;0;2
2018;Mulleres;1;1503001005;739;686;53;13;2;0;2;4;0;0;3;0;3;0;0;4;0;3;0;0;31;4;0;4;1;2;0;1;3;2;0;3;2;2;1;0;0
2018;Mulleres;1;1503001006;518;456;62;17;0;0;3;6;1;2;1;3;4;1;0;4;0;2;1;0;34;7;3;4;3;3;0;3;0;1;7;1;2;3;3;0;0
2018;Mulleres;1;1503001007;884;729;155;31;4;1;1;0;0;5;5;13;7;1;2;14;1;7;3;1;98;3;4;15;22;14;1;2;0;14;5;5;7;3;1;2;2
2018;Mulleres;1;1503001008;770;680;90;21;3;0;3;6;0;2;3;2;4;2;0;5;0;2;0;0;57;1;1;4;6;6;1;0;4;6;0;3;17;3;0;0;0
2018;Mulleres;1;1503001009;742;644;98;32;2;0;5;6;3;2;9;3;10;6;0;2;0;2;0;0;45;5;1;4;3;4;0;0;0;3;2;6;13;8;6;0;1
2018;Mulleres;1;1503001012;677;580;97;24;1;2;1;6;2;3;4;2;2;1;1;1;0;1;0;0;64;10;4;2;7;4;2;13;0;1;2;2;11;6;6;0;0